Location: Nasgenstadt
(48.2786°N, 9.7553°E)
Time: 12:48:14
(UTC+01:00)

Tiangong 1 - Visible Passes

Search period start: 20 November 2017 00:00
Search period end: 30 November 2017 00:00
Orbit: 285 x 309 km, 42.8° (Epoch: 20 November)

Date Brightness Start Highest point End Pass type
(mag) Time Alt. Az. Time Alt. Az. Time Alt. Az.
27 Nov 3.0 18:00:52 10° SSW 18:02:11 13° SSE 18:02:41 13° SSE visible
28 Nov 2.7 18:06:21 10° SSW 18:08:13 18° SSE 18:08:36 17° SSE visible
29 Nov 2.4 18:12:04 10° SW 18:14:08 21° S 18:14:24 21° SSE visible
